DW8587 Weather Reports


Display with metric or nautical units.
time (UTC)temp
F
wind
direction
speed
MPH
gust
MPH
rain 1hr
in
rain 24hr
in
rain mn
in
humidity
%
barometer
mb
20260903164547 87 267 1.0 5.0 0.00 0.00 0.00 47 1016.1
20260903163047 87 319 0.0 5.0 0.00 0.00 0.00 45 1016.1
20260903161601 88 246 3.0 8.0 0.00 0.00 0.00 44 1016.1
20260903160045 90 302 2.0 6.0 0.00 0.00 0.00 41 1016.1
20260903154545 90 275 2.0 6.0 0.00 0.00 0.00 38 1016.2
20260903153043 91 308 3.0 8.0 0.00 0.00 0.00 39 1016.1
20260903151546 90 301 2.0 7.0 0.00 0.00 0.00 40 1016.1
20260903150042 89 323 1.0 8.0 0.00 0.00 0.00 43 1016.3
20260903144641 90 310 3.0 9.0 0.00 0.00 0.00 43 1016.3
20260903143043 90 296 3.0 6.0 0.00 0.00 0.00 41 1016.3
20260903141537 90 291 1.0 8.0 0.00 0.00 0.00 41 1016.5
20260903140036 89 314 3.0 7.0 0.00 0.00 0.00 39 1016.7
20260903134542 88 269 1.0 4.0 0.00 0.00 0.00 42 1016.8
20260903133041 89 297 2.0 5.0 0.00 0.00 0.00 43 1016.9
20260903131538 88 279 2.0 7.0 0.00 0.00 0.00 45 1017.0
20260903130032 89 246 1.0 6.0 0.00 0.00 0.00 46 1017.2
20260903124548 88 61 2.0 9.0 0.00 0.00 0.00 46 1017.4
20260903123028 88 323 1.0 6.0 0.00 0.00 0.00 46 1017.4
20260903121540 86 301 1.0 8.0 0.00 0.00 0.00 47 1017.6
20260903120025 86 52 1.0 6.0 0.00 0.00 0.00 47 1017.6
20260903114524 86 148 2.0 8.0 0.00 0.00 0.00 48 1017.8
20260903113022 85 140 3.0 7.0 0.00 0.00 0.00 47 1017.8
20260903111520 86 257 3.0 7.0 0.00 0.00 0.00 47 1017.8
20260903110018 85 206 2.0 5.0 0.00 0.00 0.00 46 1018.0
20260903104524 84 140 3.0 7.0 0.00 0.00 0.00 45 1018.1
20260903103013 84 86 2.0 7.0 0.00 0.00 0.00 50 1018.4
20260903101518 84 107 3.0 6.0 0.00 0.00 0.00 50 1018.6
20260903100019 84 87 2.0 4.0 0.00 0.00 0.00 51 1018.8
20260903094505 83 173 0.0 6.0 0.00 0.00 0.00 54 1018.7
20260903093002 83 279 1.0 5.0 0.00 0.00 0.00 53 1018.7
20260903091605 82 39 3.0 6.0 0.00 0.00 0.00 54 1018.7
20260903090054 82 112 2.0 6.0 0.00 0.00 0.00 55 1018.8
20260903084550 81 115 3.0 5.0 0.00 0.00 0.00 57 1018.8
20260903083047 80 351 1.0 7.0 0.00 0.00 0.00 57 1018.6
20260903081547 80 52 4.0 6.0 0.00 0.00 0.00 55 1018.8
20260903080039 79 36 3.0 6.0 0.00 0.00 0.00 58 1018.7
20260903074534 79 37 4.0 6.0 0.00 0.00 0.00 56 1018.6
20260903073042 78 349 2.0 5.0 0.00 0.00 0.00 59 1018.4
20260903071528 76 5 2.0 4.0 0.00 0.00 0.00 62 1018.5
20260903070021 75 46 2.0 4.0 0.00 0.00 0.00 65 1018.4
20260903064516 73 49 3.0 5.0 0.00 0.00 0.00 66 1018.5
20260903063012 71 345 2.0 5.0 0.00 0.00 0.00 69 1018.5
20260903061507 70 355 3.0 8.0 0.00 0.00 0.00 72 1018.5
20260903060003 68 13 3.0 5.0 0.00 0.00 0.00 74 1018.3
20260903054558 67 22 3.0 5.0 0.00 0.00 0.00 76 1018.1
20260903053057 66 37 3.0 5.0 0.00 0.00 0.00 78 1018.0
20260903051551 65 41 5.0 7.0 0.00 0.00 0.00 79 1017.9
20260903050049 65 41 4.0 8.0 0.00 0.00 0.00 80 1017.7
20260903044548 65 46 3.0 4.0 0.00 0.00 0.00 80 1017.5
20260903043059 66 342 2.0 4.0 0.00 0.00 0.00 80 1017.3
20260903041542 66 345 2.0 3.0 0.00 0.00 0.00 79 1017.3
20260903040044 67 35 4.0 6.0 0.00 0.00 0.00 78 1017.2
20260903034540 67 28 2.0 5.0 0.00 0.00 0.00 78 1017.1
20260903033039 67 32 3.0 5.0 0.00 0.00 0.00 78 1017.1
20260903031545 67 34 4.0 8.0 0.00 0.00 0.00 79 1017.0
20260903030036 67 26 1.0 4.0 0.00 0.00 0.00 80 1016.8
20260903024536 66 37 1.0 3.0 0.00 0.00 0.00 81 1016.9
20260903023036 67 37 2.0 4.0 0.00 0.00 0.00 82 1017.0
20260903021532 67 37 0.0 2.0 0.00 0.00 0.00 80 1017.0
20260903020038 68 37 0.0 1.0 0.00 0.00 0.00 80 1017.0
20260903014527 69 37 0.0 2.0 0.00 0.00 0.00 79 1017.0
20260903013027 69 37 1.0 3.0 0.00 0.00 0.00 79 1017.0
20260903011526 68 37 1.0 3.0 0.00 0.00 0.00 80 1017.0
20260903010024 69 37 1.0 3.0 0.00 0.00 0.00 79 1017.0
20260903004522 69 37 0.0 3.0 0.00 0.00 0.00 79 1016.9
20260903003020 70 37 2.0 4.0 0.00 0.00 0.00 78 1017.0
20260903001518 71 32 3.0 5.0 0.00 0.00 0.00 76 1016.9
20260903000016 71 344 3.0 5.0 0.00 0.00 0.00 76 1016.8
20260902234513 71 39 4.0 7.0 0.00 0.00 0.00 75 1016.7
20260902233013 72 360 3.0 5.0 0.00 0.00 0.00 75 1016.7
20260902231512 72 338 1.0 3.0 0.00 0.00 0.00 75 1016.7
20260902230015 72 355 2.0 4.0 0.00 0.00 0.00 76 1016.7
20260902224509 72 40 4.0 5.0 0.00 0.00 0.00 76 1016.7
20260902223008 72 38 3.0 5.0 0.00 0.00 0.00 77 1016.6
20260902221507 71 355 2.0 4.0 0.00 0.00 0.00 79 1016.6
20260902220004 71 22 4.0 6.0 0.00 0.00 0.00 80 1016.6
20260902214504 72 37 3.0 5.0 0.00 0.00 0.00 79 1016.5
20260902213003 72 338 1.0 4.0 0.00 0.00 0.00 80 1016.5
20260902211503 72 36 2.0 9.0 0.00 0.00 0.00 79 1016.4
20260902210003 72 34 3.0 10.0 0.00 0.00 0.00 80 1016.2
20260902204501 72 37 5.0 9.0 0.00 0.00 0.00 80 1016.3
20260902203002 73 40 4.0 5.0 0.00 0.00 0.00 79 1016.1
20260902201502 73 39 4.0 7.0 0.00 0.00 0.00 79 1016.0
20260902200103 73 38 4.0 6.0 0.00 0.00 0.00 78 1016.0
20260902194602 74 44 2.0 5.0 0.00 0.00 0.00 77 1015.8
20260902193100 75 32 2.0 3.0 0.00 0.00 0.00 76 1015.9
20260902191600 76 40 2.0 4.0 0.00 0.00 0.00 74 1015.8
20260902184559 78 290 0.0 2.0 0.00 0.00 0.00 68 1015.3
20260902183110 80 290 0.0 1.0 0.00 0.00 0.00 66 1015.3
20260902181612 81 290 0.0 1.0 0.00 0.00 0.00 64 1015.3
20260902180057 81 290 0.0 2.0 0.00 0.00 0.00 62 1015.1
20260902174559 82 290 0.0 3.0 0.00 0.00 0.00 60 1015.0
20260902173114 83 294 0.0 2.0 0.00 0.00 0.00 60 1015.0
20260902171558 84 336 0.0 4.0 0.00 0.00 0.00 58 1015.0
20260902170056 85 248 2.0 5.0 0.00 0.00 0.00 56 1015.0